STARLINK-1827 (46724 NORAD) Tracking and Keplerian Element Data

This shows tracking and keplerian element data for the satellite.

Feedback or suggestion? Click here.




ElementValue
Catalog46724
NameSTARLINK-1827
Epoch Orbit609
Epoch Day328.16667824
Epoch Year2020
RAAN293.7589
Inclination53.0546
Eccentricity8.49E-05
Argument of Perigee66.6097
Mean Anonmoly92.4299
Mean Motion15.6286093
Decay Rate-0.00078228
L11 46724U 20073BG 20328.16667824 -.00078228 00000-0 -85318-3 0 9997
L22 46724 53.0546 293.7589 0000849 66.6097 92.4299 15.62860930 6096

Live tracking and technical data element details for STARLINK-1827 (NORAD 46724). STARLINK-1827 can be tracked NOW for your location showing map with azimuth and elevation plus other details from your city location.

Track the satellite on the map from your city or location and see movement details for azimuth, elevation, latitude, longitude, range, height, and movement on the map or in text.







IsCatalogInMostPopularTable: catalog: 46724, numindb: 9
Update: records affected: 1



GetName: 46724 STARLINK-1827

Hit Count: updated at: Tue, 24 Nov 2020 12:10:07 GMT